This is the latest recevied weather packets stored in our database for station/object W4SNA-2. If no packets are shown the sender has not sent any weather packets the latest 1 day(s).
| Time | Temp. | Humidity | Pressure | Rain* | Wind** | Luminosity | Snow |
|---|---|---|---|---|---|---|---|
| 1778052219 | 14.44° C | 82% | 1014.2 hPa | 0 mm | 4.02 m/s, 194° | - | - |
| 1778051919 | 14.44° C | 82% | 1014.1 hPa | 0 mm | 3.58 m/s, 192° | - | - |
| 1778051619 | 14.44° C | 82% | 1013.9 hPa | 0 mm | 4.47 m/s, 198° | - | - |
| 1778051321 | 14.44° C | 81% | 1014 hPa | 0 mm | 5.81 m/s, 190° | - | - |
| 1778051018 | 14.44° C | 81% | 1014.1 hPa | 0 mm | 4.47 m/s, 197° | - | - |
| 1778050718 | 14.44° C | 81% | 1014 hPa | 0 mm | 5.81 m/s, 199° | - | - |
| 1778050419 | 14.44° C | 81% | 1013.9 hPa | 0 mm | 5.36 m/s, 193° | - | - |
| 1778050121 | 15° C | 80% | 1014.1 hPa | 0 mm | 7.15 m/s, 193° | - | - |
| 1778049818 | 15° C | 80% | 1014.2 hPa | 0 mm | 4.47 m/s, 187° | - | - |
| 1778049518 | 15° C | 80% | 1014.4 hPa | 0 mm | 4.47 m/s, 186° | - | - |
| 1778049218 | 15° C | 79% | 1014.5 hPa | 0 mm | 4.92 m/s, 190° | - | - |
| 1778048919 | 15° C | 79% | 1014.5 hPa | 0 mm | 4.92 m/s, 193° | - | - |
| 1778048618 | 15° C | 79% | 1014.6 hPa | 0 mm | 4.92 m/s, 191° | - | - |
| 1778048318 | 15° C | 79% | 1014.4 hPa | 0 mm | 4.47 m/s, 190° | - | - |
| 1778048018 | 15° C | 78% | 1014.5 hPa | 0 mm | 4.92 m/s, 187° | - | - |
| 1778047718 | 15° C | 78% | 1014.5 hPa | 0 mm | 4.92 m/s, 194° | - | - |
| 1778047419 | 15° C | 77% | 1014.4 hPa | 0 mm | 4.02 m/s, 188° | - | - |
| 1778047120 | 15° C | 77% | 1014.5 hPa | 0 mm | 4.92 m/s, 196° | - | - |
| 1778046819 | 15° C | 76% | 1014.5 hPa | 0 mm | 4.92 m/s, 192° | - | - |
| 1778046519 | 15° C | 76% | 1014.7 hPa | 0 mm | 4.47 m/s, 187° | - | - |
| 1778046218 | 15° C | 75% | 1014.7 hPa | 0 mm | 3.58 m/s, 183° | - | - |
| 1778045918 | 15.56° C | 75% | 1014.7 hPa | 0 mm | 3.58 m/s, 184° | - | - |
| 1778045618 | 15.56° C | 74% | 1014.6 hPa | 0 mm | 3.58 m/s, 182° | - | - |
| 1778045318 | 15.56° C | 74% | 1014.6 hPa | 0 mm | 4.02 m/s, 188° | - | - |
| 1778045018 | 15.56° C | 73% | 1014.8 hPa | 0 mm | 4.92 m/s, 193° | - | - |
* Rain latest hour (hover to see other rain measurements)
** Current wind speed in m/s (hover to see current wind gust speed)